Simultaneous Nadir Overpasses (SNOs) Predictions

Prediction of SNOs between METOP-B and NOAA-19 Satellite Orbit:

Table of predicted SNOs for the next 14.0 days since TLE Epoch: 2/2/2017
Index Date (METOP-B) Time (METOP-B) Lat,Lon (METOP-B) SZA (METOP-B ) Date (NOAA-19) Time (NOAA-19) Lat,Lon (NOAA-19) SZA (NOAA-19 ) Distance(km) Time Diff (sec)
1 02/05/2017 16:15:45 -76.81, 119.47 87.55 02/05/2017 16:14:31 -76.79, 119.52 87.57 2.35 74
2 02/05/2017 17:06:25 76.82, -73.16 92.45 02/05/2017 17:05:31 76.81, -73.32 92.45 3.97 54
3 02/05/2017 17:57:07 -76.79, 94.06 87.59 02/05/2017 17:56:33 -76.80, 93.97 87.58 2.61 34
4 02/05/2017 18:47:48 76.75, -98.74 92.37 02/05/2017 18:47:32 76.78, -98.68 92.39 3.21 16
5 02/05/2017 19:38:29 -76.77, 68.65 87.63 02/05/2017 19:38:34 -76.77, 68.60 87.63 1.35 5
6 02/05/2017 20:29:10 76.74,-124.15 92.33 02/05/2017 20:29:33 76.75,-124.05 92.34 2.82 23
7 02/05/2017 21:19:51 -76.75, 43.24 87.67 02/05/2017 21:20:35 -76.74, 43.23 87.69 1.83 44
8 02/05/2017 22:10:32 76.72,-149.56 92.29 02/05/2017 22:11:34 76.72,-149.43 92.29 3.54 62
9 02/05/2017 23:01:22 -76.33, 16.33 88.11 02/05/2017 23:02:29 -76.40, 19.07 88.04 72.33 67
10 02/16/2017 09:53:02 76.86, 35.34 88.98 02/16/2017 09:51:51 76.84, 35.28 88.96 2.73 71
11 02/16/2017 10:43:44 -76.83,-157.43 91.06 02/16/2017 10:42:50 -76.81,-157.36 91.08 3.03 54
12 02/16/2017 11:34:24 76.84, 9.93 88.94 02/16/2017 11:33:52 76.81, 9.90 88.90 3.80 32
13 02/16/2017 12:25:06 -76.82, 177.16 91.11 02/16/2017 12:24:52 -76.82, 177.09 91.10 2.00 14
14 02/16/2017 13:15:46 76.82, -15.48 88.89 02/16/2017 13:15:54 76.82, -15.65 88.89 4.21 8
15 02/16/2017 14:06:28 -76.80, 151.75 91.15 02/16/2017 14:06:53 -76.79, 151.71 91.15 1.07 25
16 02/16/2017 14:57:09 76.76, -41.07 88.81 02/16/2017 14:57:55 76.79, -41.02 88.83 3.09 46
17 02/16/2017 15:47:50 -76.78, 126.34 91.19 02/16/2017 15:48:54 -76.76, 126.34 91.21 2.06 64
18 02/16/2017 16:38:41 76.29, -68.15 88.32 02/16/2017 16:39:46 76.32, -64.66 88.35 92.08 65




NCC Satellite Simultaneous Nadir
